Volver al catálogo

SL-8 DEB *

ActivoLEO
NORAD 19102·DEBRIS·🇷🇺 Russia

Lanzado Jun 1, 1982 desde Plesetsk Cosmodrome

Loading…

Próximos Pases (próximas 24 horas)

TLE

ActualizadoSource: Space-Track

Época: Sep 14, 2026, 06:06 UTC

1 19102U 82051G   26257.25462775  .00001549  00000-0  29085-3 0  9995
2 19102  74.0434 190.7388 0007643 116.3299  33.8013 14.65569792 28264

Sigue SL-8 DEB * en tiempo real con AllMySat

Download on the App Store